Вернуться в каталог

STARLINK-31026

АктивенСвязьVLEO
NORAD 58508·PAYLOAD·🇺🇸 United States

Запущен Dec 7, 2023 с Cape Canaveral Space Force Station

Loading…

Ближайшие Пролёты (ближайшие 24 часа)

TLE

СвежийSource: CelesTrak SupGP

Эпоха: Sep 15, 2026, 02:58 UTC

1 58508C 23191A   26258.12409722  .00050647  00000+0  18341-2 0  2580
2 58508  43.0025 120.6120 0001423 273.1421 340.9620 15.27559294    18

Отслеживайте STARLINK-31026 в реальном времени с AllMySat

Download on the App Store